(211323) = 2002 SB59

Discovered at Kingsnake on 2002-09-28 by J. V. McClusky.

Orbit

Orbit type: Main Belt

Note: WebGL enabled browser required.

epoch2024-03-31.0
epoch JD2460400.5
perihelion date2022-12-09.39140
perihelion JD2459922.89140
argument of perihelion (°)76.49155
ascending node (°)317.55206
inclination (°)16.08329
eccentricity0.1443230
perihelion distance (AU)2.4972112
Tisserand w.r.t. Jupiter3.2
ΔV w.r.t. Earth (km/sec)11.1
semimajor axis (AU)2.9184042
mean anomaly (°)94.41866
mean daily motion (°/day)0.19769050
aphelion distance (AU)3.340
period (years)4.99
P-vector [x]0.80292616
P-vector [y]0.38071403
P-vector [z]0.45865718
Q-vector [x]-0.56599428
Q-vector [y]0.72830579
Q-vector [z]0.38629153
absolute magnitude16.05
phase slope0.15
uncertainty0
referenceMPEC 2024-E73
observations used403
oppositions13
arc length (days)7843
first opposition used2002
last opposition used2024
residual rms (arc-secs)0.73
perturbers coarse indicatorM-v
perturbers precise indicator003Ek
first observation date used2002-09-14.0
last observation date used2024-03-05.0
computer nameMPCLINUX
JD of orbit computation2456760.921830
perihelion JD uncertainty (days)3.2394E-04
argument of perihelion uncertainty (°)7.9908E-05
ascending node uncertainty (°)1.6509E-05
inclination uncertainty (°)9.1352E-06
eccentricity uncertainty 1.3214E-07
perihelion distance uncertainty (AU)3.8755E-07
Minimum Orbit Intersection Distances (in AU)
for orbit epoch: 2460400.5, reference: E2024-GB3
Mercury2.18709
Venus1.82181
Earth1.55911
Mars1.13244
Jupiter2.24445
Saturn6.22475
Uranus15.2921
Neptune27.3431

Observations

411 total observations over interval: 2002 09 14.35758 – 2024 03 05.154974
These data are available for download (format description).

Date (UT) J2000 RA J2000 Dec Magn Location Ref
2002 09 14.35758 00 26 10.25 +23 49 07.9 19.1 R 699 – Lowell Observatory-LONEOS MPS 68000
2002 09 14.37423 00 26 09.28 +23 49 09.4   699 – Lowell Observatory-LONEOS MPS 68000
2002 09 14.39093 00 26 08.43 +23 49 14.4   699 – Lowell Observatory-LONEOS MPS 68000
2002 09 14.40769 00 26 07.53 +23 49 17.4   699 – Lowell Observatory-LONEOS MPS 68000
2002 09 28.22098 00 13 04.95 +24 11 07.3 19.2 R 446 – Kingsnake Observatory, Seguin MPS 63797
2002 09 28.26163 00 13 02.48 +24 11 06.4 20.5 R 446 – Kingsnake Observatory, Seguin MPS 63797
2002 09 28.30346 00 12 59.69 +24 11 06.4 19.2 R 446 – Kingsnake Observatory, Seguin MPS 63797
2002 10 06.13316 00 05 18.06 +24 01 51.8 19.3 R 446 – Kingsnake Observatory, Seguin MPS 63797
2002 10 06.14120 00 05 17.62 +24 01 50.7 19.3 R 446 – Kingsnake Observatory, Seguin MPS 63797
2002 10 06.17719 00 05 15.40 +24 01 46.5 19.2 R 446 – Kingsnake Observatory, Seguin MPS 63797
2002 10 06.18525 00 05 14.89 +24 01 45.1 19.2 R 446 – Kingsnake Observatory, Seguin MPS 63797
2002 10 06.22382 00 05 12.63 +24 01 40.7 18.9 R 446 – Kingsnake Observatory, Seguin MPS 63797
2002 10 06.23190 00 05 12.26 +24 01 40.3 20.1 R 446 – Kingsnake Observatory, Seguin MPS 63797
2002 10 06.27235 00 05 09.82 +24 01 33.9 19.5   704 – Lincoln Laboratory ETS, New Mexico MPS 63797
2002 10 06.28787 00 05 08.93 +24 01 32.2 19.4   704 – Lincoln Laboratory ETS, New Mexico MPS 63797
2002 10 06.30335 00 05 07.97 +24 01 30.1 19.9   704 – Lincoln Laboratory ETS, New Mexico MPS 63797
2002 10 06.31886 00 05 07.04 +24 01 27.5 19.8   704 – Lincoln Laboratory ETS, New Mexico MPS 63797
2002 10 10.24654 00 01 25.78 +23 51 31.7 19.3   704 – Lincoln Laboratory ETS, New Mexico MPS 63797
2002 10 10.26253 00 01 24.86 +23 51 29.1 19.7   704 – Lincoln Laboratory ETS, New Mexico MPS 63797
2002 10 10.27840 00 01 23.95 +23 51 25.3 19.5   704 – Lincoln Laboratory ETS, New Mexico MPS 63797
2002 10 10.30994 00 01 22.19 +23 51 22.1 19.4   704 – Lincoln Laboratory ETS, New Mexico MPS 63797
2002 10 11.14093 00 00 37.18 +23 48 51.4 19.5 R 446 – Kingsnake Observatory, Seguin MPS 63797
2002 10 11.19745 00 00 33.96 +23 48 41.3 19.1 R 446 – Kingsnake Observatory, Seguin MPS 63797
2002 10 15.22097 23 57 04.40 +23 34 53.5 19.3   644 – Palomar Mountain/NEAT MPS 68000
2002 10 15.24158 23 57 03.33 +23 34 48.6 19.5   644 – Palomar Mountain/NEAT MPS 68000
2002 10 15.26278 23 57 02.21 +23 34 43.6 19.8   644 – Palomar Mountain/NEAT MPS 68000
2002 10 30.15275 23 47 11.56 +22 27 40.7 19.4 R 446 – Kingsnake Observatory, Seguin MPS 65987
2002 10 30.26110 23 47 08.41 +22 27 09.6 19.9 R 446 – Kingsnake Observatory, Seguin MPS 65987
2002 10 31.16101 23 46 44.28 +22 22 41.3 20.4 R 446 – Kingsnake Observatory, Seguin MPS 65987
2002 10 31.23331 23 46 42.34 +22 22 20.9 20.9 R 446 – Kingsnake Observatory, Seguin MPS 65987
2002 11 10.04565 23 43 53.08 +21 34 41.8 20.6 R 446 – Kingsnake Observatory, Seguin MPS 68000
2004 01 19.34341 09 04 44.25 +21 19 38.2 20.6 V 691 – Steward Observatory, Kitt Peak-Spacewatch MPS 97778
2004 01 19.37203 09 04 42.46 +21 19 37.3 20.5 V 691 – Steward Observatory, Kitt Peak-Spacewatch MPS 97778
2004 01 19.39911 09 04 40.79 +21 19 36.5 20.5 V 691 – Steward Observatory, Kitt Peak-Spacewatch MPS 97778
2004 01 20.26076 09 03 48.81 +21 19 09.1 20.3 R 446 – Kingsnake Observatory, Seguin MPS 97778
2004 01 20.29027 09 03 47.02 +21 19 07.4 20.2 R 446 – Kingsnake Observatory, Seguin MPS 97778
2004 01 20.31997 09 03 45.11 +21 19 07.3 20.0 R 446 – Kingsnake Observatory, Seguin MPS 97778
2004 01 22.29465 09 01 44.00 +21 17 58.7 19.8   704 – Lincoln Laboratory ETS, New Mexico MPS 97778
2004 01 22.30754 09 01 43.16 +21 17 58.0 20.0   704 – Lincoln Laboratory ETS, New Mexico MPS 97778
2004 01 22.33331 09 01 41.57 +21 17 57.3 20.1   704 – Lincoln Laboratory ETS, New Mexico MPS 97778
2004 01 22.34634 09 01 40.70 +21 17 56.6 20.3   704 – Lincoln Laboratory ETS, New Mexico MPS 97778
2004 01 26.25221 08 57 35.56 +21 15 15.3 19.2 R 446 – Kingsnake Observatory, Seguin MPS 97778
2004 01 26.29639 08 57 32.86 +21 15 14.0 19.9 R 446 – Kingsnake Observatory, Seguin MPS 97778
2004 01 28.26513 08 55 27.84 +21 13 37.6 20.5 V 691 – Steward Observatory, Kitt Peak-Spacewatch MPS 97778
2004 01 28.29305 08 55 26.02 +21 13 36.4 20.3 V 691 – Steward Observatory, Kitt Peak-Spacewatch MPS 97778
2004 01 28.32477 08 55 23.95 +21 13 34.6 20.5 V 691 – Steward Observatory, Kitt Peak-Spacewatch MPS 97778
2007 09 13.33657 00 27 11.37 +23 46 12.9 19.2 V 703 – Catalina Sky Survey MPS 216086
2007 09 13.34484 00 27 10.90 +23 46 14.5 19.1 V 703 – Catalina Sky Survey MPS 216086
2007 09 13.36146 00 27 10.04 +23 46 18.1 19.7 V 703 – Catalina Sky Survey MPS 216086
2007 09 20.26142 00 21 00.14 +24 05 48.5 20.7 V 703 – Catalina Sky Survey MPS 216086
2007 09 20.26852 00 20 59.60 +24 05 48.2 19.5 V 703 – Catalina Sky Survey MPS 216086
2007 09 20.27561 00 20 59.17 +24 05 50.1 19.6 V 703 – Catalina Sky Survey MPS 216086
2007 09 20.28271 00 20 58.70 +24 05 49.7 19.9 V 703 – Catalina Sky Survey MPS 216086
2007 10 08.30885 00 03 24.69 +23 59 14.9 19.3 V 703 – Catalina Sky Survey MPS 218537
2007 10 08.31638 00 03 24.22 +23 59 14.3 19.4 V 703 – Catalina Sky Survey MPS 218537
2007 10 08.32398 00 03 23.76 +23 59 12.9 19.1 V 703 – Catalina Sky Survey MPS 218538
2007 10 08.33152 00 03 23.32 +23 59 12.2 19.4 V 703 – Catalina Sky Survey MPS 218538
2007 10 14.32768 23 57 58.64 +23 40 49.0 19.2 V 703 – Catalina Sky Survey MPS 220330
2007 10 14.33668 23 57 58.17 +23 40 46.2 19.0 V 703 – Catalina Sky Survey MPS 220330
2007 10 14.34565 23 57 57.78 +23 40 44.6 19.2 V 703 – Catalina Sky Survey MPS 220330
2007 10 14.35466 23 57 57.24 +23 40 42.9 19.3 V 703 – Catalina Sky Survey MPS 220330
2008 12 29.39817 09 24 03.06 +20 57 32.4 20.2 V G96 – Mt. Lemmon Survey MPS 270063
2008 12 29.40713 09 24 02.70 +20 57 32.1 20.3 V G96 – Mt. Lemmon Survey MPS 270063
2008 12 29.41618 09 24 02.37 +20 57 31.5 20.1 V G96 – Mt. Lemmon Survey MPS 270063
2008 12 29.42522 09 24 02.08 +20 57 31.4 20.0 V G96 – Mt. Lemmon Survey MPS 270063
2008 12 31.47482 09 22 47.12 +20 55 52.8 20.2 V 691 – Steward Observatory, Kitt Peak-Spacewatch MPS 270063
2008 12 31.49667 09 22 46.26 +20 55 51.7 20.1 V 691 – Steward Observatory, Kitt Peak-Spacewatch MPS 270063
2008 12 31.51480 09 22 45.53 +20 55 50.8 20.1 V 691 – Steward Observatory, Kitt Peak-Spacewatch MPS 270063
2009 01 17.29413 09 08 58.27 +20 46 36.8   691 – Steward Observatory, Kitt Peak-Spacewatch MPS 272341
2009 01 17.31228 09 08 57.18 +20 46 36.3   691 – Steward Observatory, Kitt Peak-Spacewatch MPS 272341
2009 01 17.33043 09 08 56.08 +20 46 36.0   691 – Steward Observatory, Kitt Peak-Spacewatch MPS 272341
2009 01 17.34679 09 08 55.06 +20 46 35.9 20.4 V 703 – Catalina Sky Survey MPS 272341
2009 01 17.35405 09 08 54.52 +20 46 34.2 19.9 V 703 – Catalina Sky Survey MPS 272341
2009 01 17.36138 09 08 54.24 +20 46 34.8 20.0 V 703 – Catalina Sky Survey MPS 272341
2009 01 17.36863 09 08 53.73 +20 46 34.5 20.0 V 703 – Catalina Sky Survey MPS 272341
2009 01 26.62395 08 59 25.45 +20 40 54.2 20.3 R D29 – Purple Mountain Observatory, XuYi Station MPS 272341
2009 01 26.63891 08 59 24.56 +20 40 53.2 20.4 R D29 – Purple Mountain Observatory, XuYi Station MPS 272341
2009 01 26.65346 08 59 23.56 +20 40 52.6 19.9 R D29 – Purple Mountain Observatory, XuYi Station MPS 272341
2009 01 26.66880 08 59 22.50 +20 40 51.9 20.0 R D29 – Purple Mountain Observatory, XuYi Station MPS 272341
2009 01 31.17994 08 54 36.09 +20 36 55.1 19.9 V 691 – Steward Observatory, Kitt Peak-Spacewatch MPS 272341
2009 01 31.19804 08 54 34.90 +20 36 54.6 19.8 V 691 – Steward Observatory, Kitt Peak-Spacewatch MPS 272341
2009 01 31.21639 08 54 33.71 +20 36 53.6 19.7 V 691 – Steward Observatory, Kitt Peak-Spacewatch MPS 272341
2009 02 04.17640 08 50 24.10 +20 32 32.7   691 – Steward Observatory, Kitt Peak-Spacewatch MPS 272341
2009 02 04.19478 08 50 22.90 +20 32 31.5   691 – Steward Observatory, Kitt Peak-Spacewatch MPS 272341
2009 02 04.21292 08 50 21.76 +20 32 30.3   691 – Steward Observatory, Kitt Peak-Spacewatch MPS 272341
2009 02 13.11420 08 41 29.49 +20 19 15.2 20.3 V 691 – Steward Observatory, Kitt Peak-Spacewatch MPS 276319
